Meteo orario Vereskovo

Oggi, 2 Ottobre, Venerdi

Tempo Temperatura Precipitazioni Vento Pressione Umidità
00:00 +12°C° 0 mm 5 m/s 745 mm Hg 72%
01:00 +12°C° 0 mm 5 m/s 745 mm Hg 72%
02:00 +10°C° 0 mm 5 m/s 745 mm Hg 73%
03:00 +10°C° 0 mm 5 m/s 745 mm Hg 72%
04:00 +10°C° 0 mm 5 m/s 745 mm Hg 71%
05:00 +10°C° 0 mm 5 m/s 745 mm Hg 70%
06:00 +10°C° 0.2 mm 5 m/s 745 mm Hg 75%
07:00 +10°C° 0.2 mm 5 m/s 745 mm Hg 79%
08:00 +10°C° 0.2 mm 5 m/s 745 mm Hg 84%
09:00 +12°C° 0 mm 5 m/s 745 mm Hg 79%
10:00 +13°C° 0 mm 5 m/s 745 mm Hg 75%
11:00 +14°C° 0 mm 5 m/s 745 mm Hg 70%
12:00 +14°C° 0 mm 5 m/s 745 mm Hg 69%
13:00 +15°C° 0 mm 5 m/s 745 mm Hg 68%
14:00 +16°C° 0 mm 5 m/s 746 mm Hg 67%
15:00 +15°C° 0 mm 4 m/s 746 mm Hg 70%
16:00 +15°C° 0 mm 4 m/s 746 mm Hg 73%
17:00 +14°C° 0 mm 3 m/s 746 mm Hg 77%
18:00 +14°C° 0.1 mm 4 m/s 746 mm Hg 80%
19:00 +13°C° 0.1 mm 4 m/s 746 mm Hg 83%
20:00 +13°C° 0.1 mm 5 m/s 746 mm Hg 86%
21:00 +12°C° 0 mm 5 m/s 746 mm Hg 88%
22:00 +12°C° 0 mm 4 m/s 746 mm Hg 90%
23:00 +12°C° 0 mm 4 m/s 746 mm Hg 91%

Domani, 3 Ottobre, Sabato

Tempo Temperatura Precipitazioni Vento Pressione Umidità
00:00 +12°C° 0 mm 4 m/s 746 mm Hg 92%
01:00 +12°C° 0 mm 4 m/s 746 mm Hg 93%
02:00 +11°C° 0 mm 4 m/s 746 mm Hg 94%
03:00 +11°C° 0 mm 4 m/s 746 mm Hg 95%
04:00 +10°C° 0 mm 5 m/s 746 mm Hg 95%
05:00 +10°C° 0 mm 5 m/s 746 mm Hg 95%
06:00 +10°C° 0 mm 5 m/s 746 mm Hg 93%
07:00 +10°C° 0 mm 5 m/s 746 mm Hg 91%
08:00 +12°C° 0 mm 5 m/s 746 mm Hg 89%
09:00 +12°C° 0 mm 5 m/s 746 mm Hg 86%
10:00 +13°C° 0 mm 5 m/s 746 mm Hg 83%
11:00 +14°C° 0 mm 5 m/s 746 mm Hg 80%
12:00 +15°C° 0.1 mm 5 m/s 746 mm Hg 78%
13:00 +15°C° 0.1 mm 5 m/s 746 mm Hg 77%
14:00 +16°C° 0.1 mm 6 m/s 746 mm Hg 75%
15:00 +16°C° 0.2 mm 6 m/s 746 mm Hg 77%
16:00 +15°C° 0.2 mm 6 m/s 746 mm Hg 80%
17:00 +15°C° 0.2 mm 7 m/s 745 mm Hg 82%
18:00 +15°C° 0 mm 6 m/s 745 mm Hg 83%
19:00 +14°C° 0 mm 6 m/s 745 mm Hg 84%
20:00 +14°C° 0 mm 6 m/s 745 mm Hg 85%
21:00 +14°C° 0 mm 6 m/s 745 mm Hg 84%
22:00 +15°C° 0 mm 6 m/s 745 mm Hg 83%
23:00 +15°C° 0 mm 6 m/s 745 mm Hg 82%

Dopodomani, 4 Ottobre, Domenica

Tempo Temperatura Precipitazioni Vento Pressione Umidità
00:00 +15°C° 0 mm 6 m/s 745 mm Hg 82%
01:00 +15°C° 0 mm 6 m/s 745 mm Hg 82%
02:00 +15°C° 0 mm 6 m/s 745 mm Hg 82%
03:00 +15°C° 0 mm 6 m/s 745 mm Hg 82%
04:00 +15°C° 0 mm 6 m/s 745 mm Hg 82%
05:00 +15°C° 0 mm 6 m/s 745 mm Hg 83%
06:00 +15°C° 0 mm 6 m/s 744 mm Hg 82%
07:00 +15°C° 0 mm 6 m/s 744 mm Hg 81%
08:00 +15°C° 0 mm 6 m/s 744 mm Hg 81%
09:00 +17°C° 0 mm 7 m/s 744 mm Hg 76%
10:00 +18°C° 0 mm 7 m/s 745 mm Hg 70%
11:00 +20°C° 0 mm 8 m/s 745 mm Hg 65%
12:00 +21°C° 0 mm 8 m/s 745 mm Hg 64%
13:00 +21°C° 0 mm 8 m/s 745 mm Hg 62%
14:00 +22°C° 0 mm 8 m/s 744 mm Hg 60%
15:00 +22°C° 0 mm 7 m/s 744 mm Hg 62%
16:00 +21°C° 0 mm 6 m/s 744 mm Hg 64%
17:00 +21°C° 0 mm 6 m/s 744 mm Hg 67%
18:00 +20°C° 0 mm 6 m/s 745 mm Hg 68%
19:00 +20°C° 0 mm 6 m/s 745 mm Hg 69%
20:00 +20°C° 0 mm 6 m/s 745 mm Hg 70%
21:00 +19°C° 0 mm 6 m/s 746 mm Hg 71%
22:00 +19°C° 0 mm 5 m/s 746 mm Hg 73%
23:00 +17°C° 0 mm 5 m/s 746 mm Hg 75%

5 Ottobre, Lunedi

Tempo Temperatura Precipitazioni Vento Pressione Umidità
00:00 +17°C° 0 mm 5 m/s 746 mm Hg 76%
01:00 +16°C° 0 mm 5 m/s 746 mm Hg 77%
02:00 +16°C° 0 mm 5 m/s 746 mm Hg 78%
03:00 +16°C° 0.3 mm 5 m/s 747 mm Hg 80%
04:00 +15°C° 0.3 mm 5 m/s 747 mm Hg 83%
05:00 +15°C° 0.3 mm 5 m/s 747 mm Hg 85%
06:00 +15°C° 0.4 mm 5 m/s 746 mm Hg 86%
07:00 +15°C° 0.4 mm 5 m/s 746 mm Hg 86%
08:00 +16°C° 0.4 mm 5 m/s 746 mm Hg 86%
09:00 +16°C° 0 mm 6 m/s 746 mm Hg 81%
10:00 +17°C° 0 mm 6 m/s 746 mm Hg 76%
11:00 +18°C° 0 mm 7 m/s 746 mm Hg 71%
12:00 +20°C° 0 mm 7 m/s 746 mm Hg 69%
13:00 +21°C° 0 mm 7 m/s 746 mm Hg 68%
14:00 +22°C° 0 mm 7 m/s 745 mm Hg 66%
15:00 +21°C° 0 mm 6 m/s 745 mm Hg 68%
16:00 +21°C° 0 mm 6 m/s 745 mm Hg 70%
17:00 +20°C° 0 mm 6 m/s 745 mm Hg 71%
18:00 +20°C° 0 mm 6 m/s 745 mm Hg 72%
19:00 +20°C° 0 mm 6 m/s 744 mm Hg 73%
20:00 +20°C° 0 mm 6 m/s 744 mm Hg 74%
21:00 +20°C° 0.1 mm 6 m/s 745 mm Hg 76%
22:00 +20°C° 0.1 mm 6 m/s 745 mm Hg 77%
23:00 +19°C° 0.1 mm 5 m/s 745 mm Hg 78%

6 Ottobre, Martedi

Tempo Temperatura Precipitazioni Vento Pressione Umidità
00:00 +19°C° 0.2 mm 5 m/s 745 mm Hg 78%
01:00 +17°C° 0.2 mm 5 m/s 744 mm Hg 79%
02:00 +17°C° 0.2 mm 5 m/s 744 mm Hg 79%
03:00 +16°C° 0.2 mm 5 m/s 744 mm Hg 81%
04:00 +16°C° 0.2 mm 5 m/s 744 mm Hg 83%
05:00 +16°C° 0.2 mm 5 m/s 744 mm Hg 85%
06:00 +16°C° 0 mm 5 m/s 745 mm Hg 85%
07:00 +16°C° 0 mm 5 m/s 745 mm Hg 86%
08:00 +17°C° 0 mm 5 m/s 745 mm Hg 87%
09:00 +17°C° 0 mm 5 m/s 745 mm Hg 83%
10:00 +19°C° 0 mm 5 m/s 745 mm Hg 80%
11:00 +20°C° 0 mm 5 m/s 746 mm Hg 77%
12:00 +20°C° 0.1 mm 5 m/s 746 mm Hg 75%
13:00 +21°C° 0.1 mm 5 m/s 746 mm Hg 73%
14:00 +21°C° 0.1 mm 4 m/s 746 mm Hg 71%
15:00 +20°C° 0.2 mm 4 m/s 746 mm Hg 76%
16:00 +19°C° 0.2 mm 4 m/s 745 mm Hg 81%
17:00 +18°C° 0.2 mm 4 m/s 745 mm Hg 85%
18:00 +17°C° 1.1 mm 4 m/s 745 mm Hg 88%
19:00 +16°C° 1.1 mm 3 m/s 745 mm Hg 91%
20:00 +16°C° 1.1 mm 2 m/s 745 mm Hg 94%
21:00 +16°C° 0.3 mm 3 m/s 745 mm Hg 89%
22:00 +15°C° 0.3 mm 4 m/s 744 mm Hg 85%
23:00 +15°C° 0.3 mm 4 m/s 744 mm Hg 80%

7 Ottobre, Mercoledi

Tempo Temperatura Precipitazioni Vento Pressione Umidità
00:00 +15°C° 0 mm 5 m/s 744 mm Hg 77%
01:00 +15°C° 0 mm 5 m/s 743 mm Hg 74%
02:00 +15°C° 0 mm 6 m/s 743 mm Hg 72%
03:00 +15°C° 0 mm 5 m/s 743 mm Hg 72%
04:00 +15°C° 0 mm 5 m/s 743 mm Hg 72%
05:00 +15°C° 0 mm 5 m/s 743 mm Hg 72%
06:00 +15°C° 0.2 mm 5 m/s 743 mm Hg 78%
07:00 +15°C° 0.2 mm 5 m/s 744 mm Hg 84%
08:00 +14°C° 0.2 mm 5 m/s 744 mm Hg 90%
09:00 +14°C° 0.2 mm 5 m/s 745 mm Hg 87%
10:00 +14°C° 0.2 mm 4 m/s 746 mm Hg 85%
11:00 +15°C° 0.2 mm 4 m/s 746 mm Hg 82%
12:00 +16°C° 0 mm 3 m/s 747 mm Hg 78%
13:00 +17°C° 0 mm 2 m/s 747 mm Hg 74%
14:00 +17°C° 0 mm 2 m/s 747 mm Hg 70%
15:00 +17°C° 0 mm 2 m/s 747 mm Hg 73%
16:00 +16°C° 0 mm 1 m/s 748 mm Hg 76%
17:00 +16°C° 0 mm 1 m/s 748 mm Hg 79%
18:00 +15°C° 0 mm 2 m/s 748 mm Hg 83%
19:00 +14°C° 0 mm 2 m/s 748 mm Hg 87%
20:00 +13°C° 0 mm 2 m/s 749 mm Hg 91%
21:00 +13°C° 0 mm 2 m/s 749 mm Hg 92%
22:00 +13°C° 0 mm 1 m/s 749 mm Hg 94%
23:00 +13°C° 0 mm 1 m/s 749 mm Hg 95%
Mostrare altro